GW3844 Weather Reports


time (UTC)temp
C
wind
direction
speed
KPH
gust
KPH
rain 1hr
cm
rain 24hr
cm
rain mn
cm
humidity
%
barometer
mb
20260506012042 30 96 0.0 0.0 0.00 0.00 0.00 82 1010.8
20260506011540 30 94 0.0 0.0 0.00 0.00 0.00 80 1010.4
20260506011036 30 82 1.6 1.6 0.00 0.00 0.00 83 1010.4
20260506010531 28 102 0.0 0.0 0.00 0.00 0.00 82 1010.3
20260506010027 28 86 0.0 0.0 0.00 0.00 0.00 85 1010.2
20260506005524 28 84 1.6 1.6 0.00 0.00 0.00 86 1010.2
20260506005020 28 92 3.2 4.8 0.00 0.00 0.00 89 1009.9
20260506004517 28 75 1.6 1.6 0.00 0.00 0.00 88 1010.1
20260506004014 28 58 1.6 3.2 0.00 0.00 0.00 89 1009.9
20260506003510 28 73 3.2 3.2 0.00 0.00 0.00 90 1010.0
20260506003006 28 100 4.8 4.8 0.00 0.00 0.00 90 1009.7
20260506002503 27 69 0.0 1.6 0.00 0.00 0.00 92 1009.8
20260506001958 27 52 1.6 1.6 0.00 0.00 0.00 94 1009.7
20260506001455 27 72 4.8 4.8 0.00 0.00 0.00 94 1009.7
20260506000952 27 99 3.2 3.2 0.00 0.00 0.00 95 1009.8
20260506000450 27 99 1.6 1.6 0.00 0.00 0.00 95 1009.6
20260505235946 27 64 3.2 3.2 0.00 0.00 0.00 96 1009.6
20260505235445 26 60 3.2 4.8 0.00 0.00 0.00 98 1009.6
20260505234941 26 78 3.2 4.8 0.00 0.00 0.00 99 1009.6
20260505234439 25 77 0.0 1.6 0.00 0.00 0.00 99 1009.5
20260505233935 25 86 1.6 1.6 0.00 0.00 0.00 99 1009.3
20260505233433 25 78 1.6 1.6 0.00 0.00 0.00 99 1009.6
20260505232930 25 92 0.0 1.6 0.00 0.00 0.00 99 1009.3
20260505232428 25 89 0.0 0.0 0.00 0.00 0.00 99 1009.2
20260505231925 25 87 0.0 0.0 0.00 0.00 0.00 99 1009.2
20260505231422 24 95 0.0 0.0 0.00 0.00 0.00 99 1009.1
20260505230920 24 96 0.0 0.0 0.00 0.00 0.00 99 1009.2
20260505230418 24 96 0.0 0.0 0.00 0.00 0.00 99 1009.1
20260505225914 24 93 0.0 0.0 0.00 0.00 0.00 99 1009.1
20260505225411 24 92 0.0 0.0 0.00 0.00 0.00 99 1008.9
20260505224911 24 85 0.0 0.0 0.00 0.00 0.00 99 1008.9
20260505224409 24 91 0.0 0.0 0.00 0.00 0.00 99 1008.8
20260505223906 24 89 0.0 0.0 0.00 0.00 0.00 99 1008.7
20260505223403 24 88 0.0 0.0 0.00 0.00 0.00 99 1008.6
20260505222859 24 89 0.0 0.0 0.00 0.00 0.00 99 1008.8
20260505222355 24 79 0.0 0.0 0.00 0.00 0.00 99 1008.6
20260505221852 24 86 0.0 1.6 0.00 0.00 0.00 99 1008.5
20260505221349 24 72 3.2 4.8 0.00 0.00 0.00 99 1008.3
20260505220846 24 59 1.6 1.6 0.00 0.00 0.00 99 1008.5
20260505220343 24 96 1.6 1.6 0.00 0.00 0.00 99 1008.6
20260505215841 24 79 1.6 1.6 0.00 0.00 0.00 99 1008.4
20260505215339 24 98 1.6 3.2 0.00 0.00 0.00 99 1008.3
20260505214837 24 94 0.0 1.6 0.00 0.00 0.00 99 1008.4
20260505214334 24 87 0.0 1.6 0.00 0.00 0.00 99 1008.2
20260505213831 24 97 0.0 0.0 0.00 0.00 0.00 99 1008.4
20260505213329 24 82 1.6 1.6 0.00 0.00 0.00 99 1008.5
20260505212824 24 64 3.2 3.2 0.00 0.00 0.00 99 1008.2
20260505212322 24 91 0.0 0.0 0.00 0.00 0.00 99 1008.2
20260505211818 24 72 1.6 1.6 0.00 0.00 0.00 99 1008.2
20260505211316 24 77 0.0 1.6 0.00 0.00 0.00 99 1008.4
20260505210812 24 59 1.6 1.6 0.00 0.00 0.00 99 1008.5
20260505210309 24 75 0.0 0.0 0.00 0.00 0.00 99 1008.1
20260505205806 24 76 1.6 1.6 0.00 0.00 0.00 99 1008.3
20260505205305 24 103 0.0 1.6 0.00 0.00 0.00 99 1008.3
20260505204800 24 98 3.2 3.2 0.00 0.00 0.00 99 1008.1
20260505204258 23 95 0.0 0.0 0.00 0.00 0.00 99 1008.0
20260505203755 23 100 1.6 3.2 0.00 0.00 0.00 99 1008.2
20260505203252 23 66 0.0 1.6 0.00 0.00 0.00 99 1008.3
20260505202749 23 95 0.0 0.0 0.00 0.00 0.00 99 1008.1
20260505202245 23 103 0.0 0.0 0.00 0.00 0.00 99 1008.1
20260505201742 23 98 0.0 0.0 0.00 0.00 0.00 99 1008.2
20260505201239 23 105 0.0 0.0 0.00 0.00 0.00 99 1008.1
20260505200738 23 104 0.0 0.0 0.00 0.00 0.00 99 1008.2
20260505200234 23 102 0.0 0.0 0.00 0.00 0.00 99 1008.2
20260505195729 23 102 0.0 0.0 0.00 0.00 0.00 99 1008.1
20260505195227 23 107 0.0 0.0 0.00 0.00 0.00 99 1007.8
20260505194724 23 101 0.0 0.0 0.00 0.00 0.00 99 1008.3
20260505194220 23 111 0.0 0.0 0.00 0.00 0.00 99 1008.0
20260505193716 23 114 0.0 0.0 0.00 0.00 0.00 99 1008.1
20260505193213 23 110 0.0 0.0 0.00 0.00 0.00 99 1007.8
20260505192712 23 111 0.0 0.0 0.00 0.00 0.00 99 1008.0
20260505192209 23 86 0.0 0.0 0.00 0.00 0.00 99 1008.1
20260505191708 23 91 0.0 0.0 0.00 0.00 0.00 99 1008.0
20260505191205 23 71 1.6 1.6 0.00 0.00 0.00 99 1007.8
20260505190701 23 82 0.0 0.0 0.00 0.00 0.00 99 1008.0
20260505190155 23 82 0.0 0.0 0.00 0.00 0.00 99 1008.0
20260505185653 23 85 0.0 0.0 0.00 0.00 0.00 99 1008.1
20260505185149 23 96 0.0 0.0 0.00 0.00 0.00 99 1008.1
20260505184645 23 88 0.0 0.0 0.00 0.00 0.00 99 1008.1
20260505184143 23 56 1.6 1.6 0.00 0.00 0.00 99 1008.4
20260505183639 23 82 0.0 0.0 0.00 0.00 0.00 99 1008.4
20260505183137 23 78 0.0 0.0 0.00 0.00 0.00 99 1008.4
20260505182633 23 87 0.0 0.0 0.00 0.00 0.00 99 1008.5
20260505182130 23 82 0.0 1.6 0.00 0.00 0.00 99 1008.2
20260505181627 23 78 1.6 1.6 0.00 0.00 0.00 99 1008.4
20260505181124 23 85 0.0 0.0 0.00 0.00 0.00 99 1008.4
20260505180620 23 75 1.6 1.6 0.00 0.00 0.00 99 1008.5
20260505180118 23 80 0.0 1.6 0.00 0.00 0.00 99 1008.6
20260505175613 23 105 0.0 0.0 0.00 0.00 0.00 99 1008.5
20260505175110 24 90 0.0 0.0 0.00 0.00 0.00 99 1008.7
20260505174607 24 88 0.0 0.0 0.00 0.00 0.00 99 1008.9
20260505174103 24 106 0.0 0.0 0.00 0.00 0.00 99 1008.9
20260505173600 24 103 0.0 0.0 0.00 0.00 0.00 99 1009.0
20260505173056 24 89 0.0 0.0 0.00 0.00 0.00 99 1009.1
20260505172553 24 90 0.0 0.0 0.00 0.00 0.00 99 1008.9
20260505172050 24 100 0.0 0.0 0.00 0.00 0.00 99 1009.1
20260505171545 24 97 0.0 0.0 0.00 0.00 0.00 99 1009.2
20260505171042 25 97 0.0 0.0 0.00 0.00 0.00 99 1009.4
20260505170539 25 94 0.0 0.0 0.00 0.00 0.00 99 1009.6
20260505170035 25 66 1.6 1.6 0.00 0.00 0.00 99 1009.6
20260505165530 25 339 3.2 4.8 0.00 0.61 0.61 99 1009.5
20260505165026 25 62 4.8 4.8 0.00 0.61 0.61 99 1009.7
20260505164522 25 75 3.2 3.2 0.00 0.61 0.61 99 1009.6
20260505164020 25 68 3.2 3.2 0.00 0.61 0.61 99 1009.9
20260505163519 25 77 1.6 1.6 0.00 0.61 0.61 99 1009.6
20260505163015 25 104 1.6 3.2 0.00 0.61 0.61 99 1009.5
20260505162508 25 109 1.6 1.6 0.00 0.61 0.61 99 1009.7
20260505162005 25 49 1.6 1.6 0.00 0.61 0.61 99 1010.0
20260505161456 25 95 0.0 0.0 0.00 0.61 0.61 99 1009.9
20260505160954 25 102 0.0 1.6 0.00 0.61 0.61 99 1009.8
20260505160452 25 80 1.6 1.6 0.00 0.61 0.61 99 1009.8
20260505152929 25 74 1.6 1.6 0.00 0.61 0.61 99 1010.3
20260505152426 24 78 0.0 1.6 0.00 0.61 0.61 99 1010.0
20260505151926 25 52 3.2 3.2 0.18 0.61 0.61 99 1010.2
20260505151422 25 85 1.6 1.6 0.18 0.61 0.61 99 1010.2
20260505150919 25 92 0.0 0.0 0.00 0.58 0.58 99 1010.1
20260505150416 25 115 1.6 1.6 0.00 0.58 0.58 99 1010.2
20260505140335 24 55 3.2 3.2 0.00 0.58 0.58 99 1010.5
20260505130258 23 125 1.6 1.6 0.13 0.58 0.58 99 1009.6
20260505124748 24 132 1.6 1.6 0.00 0.56 0.56 99 1009.0
20260505124245 24 113 1.6 1.6 0.00 0.56 0.56 99 1008.9
20260505123741 25 132 1.6 3.2 0.00 0.56 0.56 99 1008.8
20260505123238 25 136 4.8 4.8 0.00 0.56 0.56 99 1008.7
20260505122734 25 92 0.0 1.6 0.00 0.56 0.56 99 1008.4
20260505122232 25 109 1.6 1.6 0.00 0.56 0.56 99 1008.4
20260505121728 25 103 0.0 0.0 0.00 0.56 0.56 99 1008.0
20260505121225 25 113 4.8 4.8 0.00 0.56 0.56 99 1007.9
20260505120721 25 123 3.2 3.2 0.00 0.56 0.56 99 1007.9
20260505120217 25 93 1.6 3.2 0.00 0.56 0.56 99 1007.9
20260505115716 25 116 3.2 3.2 0.00 0.56 0.56 99 1008.0
20260505115214 25 105 0.0 0.0 0.18 0.56 0.56 99 1007.9
20260505114711 25 80 0.0 0.0 0.48 0.56 0.56 99 1008.0
20260505114207 25 24 3.2 3.2 0.89 0.53 0.53 99 1008.1
20260505113703 25 51 1.6 3.2 0.61 0.48 0.48 99 1008.4
20260505113200 25 50 3.2 4.8 0.13 0.41 0.41 97 1008.5
20260505112656 25 94 0.0 0.0 0.00 0.38 0.38 99 1008.4
20260505112155 25 106 3.2 3.2 0.00 0.38 0.38 97 1008.4
20260505111654 25 105 3.2 4.8 0.00 0.38 0.38 96 1008.3
20260505111150 25 107 1.6 1.6 0.00 0.38 0.38 97 1008.0
20260505110646 25 133 1.6 3.2 0.00 0.38 0.38 97 1008.0
20260505110144 25 148 6.4 6.4 0.00 0.38 0.38 96 1007.7
20260505102120 27 107 1.6 1.6 0.00 0.38 0.38 98 1006.5
20260505101618 27 124 3.2 3.2 0.18 0.38 0.38 98 1006.5
20260505101114 27 97 0.0 0.0 0.79 0.38 0.38 97 1006.2
20260505100610 27 110 1.6 1.6 2.11 0.36 0.36 90 1006.3
20260505100107 28 90 3.2 4.8 1.50 0.25 0.25 91 1006.7
20260505095603 30 95 0.0 1.6 0.13 0.03 0.03 86 1006.5
20260505095100 31 320 6.4 6.4 0.00 0.00 0.00 81 1006.2
20260505094556 31 103 0.0 1.6 0.00 0.00 0.00 76 1006.3
20260505094053 31 336 6.4 9.7 0.00 0.00 0.00 80 1006.3
20260505093549 32 36 3.2 4.8 0.00 0.00 0.00 79 1006.0
20260505093047 31 99 1.6 3.2 0.00 0.00 0.00 78 1006.2
20260505092544 32 262 6.4 9.7 0.00 0.00 0.00 77 1005.8
20260505092042 31 265 6.4 12.9 0.00 0.00 0.00 78 1005.9
20260505091539 31 10 3.2 3.2 0.00 0.00 0.00 78 1006.0
20260505091037 32 121 1.6 1.6 0.00 0.00 0.00 79 1005.9
20260505090535 32 3 3.2 4.8 0.00 0.00 0.00 76 1005.9
20260505090033 32 333 4.8 11.3 0.00 0.00 0.00 75 1006.3
20260505085530 32 130 1.6 3.2 0.00 0.00 0.00 75 1006.0
20260505085028 32 74 3.2 4.8 0.00 0.00 0.00 75 1006.1
20260505084526 32 146 4.8 6.4 0.00 0.00 0.00 74 1006.3
20260505084024 33 97 1.6 3.2 0.00 0.00 0.00 72 1006.1
20260505083521 33 209 6.4 9.7 0.00 0.00 0.00 71 1006.1
20260505083017 34 51 4.8 4.8 0.00 0.00 0.00 68 1005.7
20260505082513 34 244 3.2 3.2 0.00 0.00 0.00 67 1005.8
20260505082010 35 76 3.2 3.2 0.00 0.00 0.00 66 1005.8
20260505081506 35 316 3.2 3.2 0.00 0.00 0.00 66 1005.7
20260505081003 35 235 4.8 4.8 0.00 0.00 0.00 65 1006.0
20260505080500 35 166 3.2 3.2 0.00 0.00 0.00 66 1006.3
20260505075955 35 208 3.2 4.8 0.00 0.00 0.00 65 1006.4
20260505075452 35 34 3.2 9.7 0.00 0.00 0.00 67 1006.4
20260505074949 34 283 1.6 3.2 0.00 0.00 0.00 67 1006.6
20260505074447 35 240 1.6 1.6 0.00 0.00 0.00 62 1006.5
20260505073944 35 21 3.2 3.2 0.00 0.00 0.00 65 1006.5
20260505073441 33 102 1.6 3.2 0.00 0.00 0.00 67 1006.6
20260505072938 34 338 6.4 6.4 0.00 0.00 0.00 69 1007.1
20260505072434 34 126 3.2 4.8 0.00 0.00 0.00 71 1006.7
20260505071931 34 178 6.4 6.4 0.00 0.00 0.00 65 1006.6
20260505071427 33 280 4.8 4.8 0.00 0.00 0.00 69 1007.2
20260505070925 33 216 1.6 3.2 0.00 0.00 0.00 69 1006.8
20260505070421 33 333 3.2 4.8 0.00 0.00 0.00 66 1007.0
20260505065917 34 202 4.8 6.4 0.00 0.00 0.00 59 1007.2
20260505065414 35 152 3.2 3.2 0.00 0.00 0.00 58 1007.3
20260505064910 35 119 3.2 3.2 0.00 0.00 0.00 57 1007.2
20260505064408 35 48 0.0 1.6 0.00 0.00 0.00 58 1007.6
20260505063906 35 161 1.6 3.2 0.00 0.00 0.00 54 1007.5
20260505063402 35 98 0.0 1.6 0.00 0.00 0.00 53 1007.6
20260505062859 35 162 6.4 6.4 0.00 0.00 0.00 52 1007.9
20260505062356 35 117 3.2 3.2 0.00 0.00 0.00 52 1008.0
20260505061852 35 282 4.8 4.8 0.00 0.00 0.00 55 1008.0
20260505061351 35 86 1.6 1.6 0.00 0.00 0.00 62 1008.3
20260505060848 35 352 4.8 6.4 0.00 0.00 0.00 62 1008.3
20260505060345 35 104 1.6 1.6 0.00 0.00 0.00 58 1008.5
20260505055841 34 104 1.6 1.6 0.00 0.00 0.00 59 1008.3
20260505055337 35 106 3.2 3.2 0.00 0.00 0.00 55 1008.7
20260505054834 35 121 1.6 3.2 0.00 0.00 0.00 54 1008.7
20260505054331 35 79 3.2 3.2 0.00 0.00 0.00 59 1009.0
20260505053830 35 106 0.0 0.0 0.00 0.00 0.00 56 1009.1
20260505053326 35 32 8.0 9.7 0.00 0.00 0.00 59 1008.9
20260505052823 35 167 1.6 1.6 0.00 0.00 0.00 59 1009.0
20260505052320 34 110 1.6 1.6 0.00 0.00 0.00 62 1009.1
20260505051817 35 119 6.4 6.4 0.00 0.00 0.00 59 1009.2
20260505051314 34 101 0.0 1.6 0.00 0.00 0.00 66 1009.3
20260505050812 33 91 0.0 1.6 0.00 0.00 0.00 67 1009.2
20260505050311 33 73 1.6 1.6 0.00 0.00 0.00 68 1009.3
20260505041740 33 50 4.8 4.8 0.00 0.00 0.00 76 1010.0
20260505041237 32 94 0.0 0.0 0.00 0.00 0.00 75 1009.9
20260505040735 32 11 3.2 3.2 0.00 0.00 0.00 74 1010.1
20260505040232 31 144 4.8 6.4 0.00 0.00 0.00 79 1010.2
20260505035729 31 47 4.8 4.8 0.00 0.00 0.00 77 1010.1
20260505035225 32 47 6.4 9.7 0.00 0.00 0.00 75 1010.2
20260505034722 32 71 1.6 1.6 0.00 0.00 0.00 75 1010.5
20260505034219 31 93 0.0 0.0 0.00 0.00 0.00 77 1010.4
20260505033715 30 338 6.4 6.4 0.00 0.00 0.00 81 1010.6
20260505033213 31 44 3.2 4.8 0.00 0.00 0.00 83 1010.4
20260505032711 31 124 3.2 4.8 0.00 0.00 0.00 81 1010.8
20260505032207 31 54 4.8 4.8 0.00 0.00 0.00 85 1010.7
20260505031704 31 82 3.2 3.2 0.00 0.00 0.00 84 1010.8
20260505031200 31 301 4.8 4.8 0.00 0.00 0.00 78 1010.7
20260505030657 31 32 3.2 4.8 0.00 0.00 0.00 78 1010.7
20260505030153 30 75 0.0 1.6 0.00 0.00 0.00 83 1010.7
20260505025649 30 331 3.2 4.8 0.00 0.00 0.00 85 1010.8
20260505025148 30 67 3.2 4.8 0.00 0.00 0.00 84 1010.7
20260505024645 30 285 3.2 3.2 0.00 0.00 0.00 83 1011.1
20260505024142 30 87 1.6 1.6 0.00 0.00 0.00 84 1010.6
20260505023640 30 350 4.8 4.8 0.00 0.00 0.00 82 1010.7
20260505023137 30 344 4.8 4.8 0.00 0.00 0.00 84 1010.9
20260505022634 31 137 3.2 3.2 0.00 0.00 0.00 82 1010.9
20260505022131 30 86 0.0 1.6 0.00 0.00 0.00 82 1011.0
20260505021628 30 88 0.0 0.0 0.00 0.00 0.00 82 1011.0
20260505021125 30 93 1.6 1.6 0.00 0.00 0.00 83 1010.9
20260505020620 29 333 4.8 4.8 0.00 0.00 0.00 84 1010.9
20260505020117 28 270 3.2 4.8 0.00 0.00 0.00 83 1010.6
20260505015614 28 353 4.8 4.8 0.00 0.00 0.00 87 1010.7
20260505015110 28 354 4.8 6.4 0.00 0.00 0.00 87 1010.8
20260505014607 28 293 3.2 3.2 0.00 0.00 0.00 87 1010.9
20260505014104 28 277 4.8 4.8 0.00 0.00 0.00 87 1010.7
20260505013601 28 351 4.8 6.4 0.00 0.00 0.00 86 1010.8
20260505013059 28 84 3.2 3.2 0.00 0.00 0.00 88 1010.9
20260505012556 28 34 8.0 9.7 0.00 0.00 0.00 86 1010.9